Weather History for KSBM - September, 2012

Change the Weather History Date:

Tuesday, September 11, 2012

  Actual Average Record
Temperature  
Mean Temperature 68 °F -  
Max Temperature 86 °F - - ()
Min Temperature 50 °F - - ()
Cooling Degree Days 3    
Growing Degree Days 18 (Base 50)    
Moisture  
Dew Point 53 °F    
Average Humidity 62    
Maximum Humidity 92    
Minimum Humidity 34    
Precipitation  
Precipitation 0.00 in - - ()
Sea Level Pressure  
Sea Level Pressure 30.03 in    
Wind  
Wind Speed 8 mph (SSW)    
Max Wind Speed 22 mph    
Max Gust Speed 29 mph    
Visibility 10 miles    
Events      
T = Trace of Precipitation, MM = Missing Value Source: NWS Daily Summary

Daily Weather History Graph

Daily Weather History Graph

Search for Another Location

Airport or City:

Trip Planner

Search our weather history database for the weather conditions in past years. The results will help you decide how hot, cold, wet, or windy it might be!

Date:

Astronomy

Sep. 11, 2012 Rise Set
Actual Time 6:26 AM CDT 7:08 PM CDT
Civil Twilight 5:57 AM CDT 7:37 PM CDT
Nautical Twilight 5:23 AM CDT 8:11 PM CDT
Astronomical Twilight 4:47 AM CDT 8:46 PM CDT
Moon 1:36 AM CDT (9/11) 4:24 PM CDT (9/11)
Length of Visible Light 13h 39m
Length of Day
12h 41m
Waning Crescent, 21% of the Moon is Illuminated
Sep 11
Waning Crescent
Sep 15
New
Sep 22
First Quarter
Sep 29
Full
Oct 8
Last Quarter

Hourly Weather History & Observations

Time (CDT) Temp. Heat Index Dew Point Humidity Pressure Visibility Wind Dir Wind Speed Gust Speed Precip Events Conditions
12:53 AM 55.9 °F - 50.0 °F 80% 30.06 in 10.0 mi SSW 4.6 mph - N/A   Clear
1:53 AM 54.0 °F - 48.9 °F 83% 30.07 in 10.0 mi Calm Calm - N/A   Clear
2:53 AM 51.1 °F - 48.9 °F 92% 30.06 in 10.0 mi Calm Calm - N/A   Clear
3:53 AM 53.1 °F - 50.0 °F 89% 30.06 in 10.0 mi Calm Calm - N/A   Clear
4:53 AM 51.1 °F - 46.9 °F 86% 30.06 in 10.0 mi SW 3.5 mph - N/A   Clear
5:53 AM 52.0 °F - 46.9 °F 83% 30.07 in 10.0 mi South 3.5 mph - N/A   Clear
6:53 AM 50.0 °F - 46.9 °F 89% 30.08 in 10.0 mi SW 6.9 mph - N/A   Clear
7:53 AM 61.0 °F - 54.0 °F 78% 30.07 in 10.0 mi SSW 5.8 mph - N/A   Clear
8:53 AM 68.0 °F - 55.0 °F 63% 30.07 in 10.0 mi SSW 11.5 mph - N/A   Clear
9:53 AM 73.9 °F - 55.0 °F 52% 30.06 in 10.0 mi SSW 19.6 mph 28.8 mph N/A   Clear
10:53 AM 79.0 °F - 54.0 °F 42% 30.05 in 10.0 mi SW 20.7 mph 26.5 mph N/A   Clear
11:53 AM 80.1 °F 80.1 °F 55.0 °F 42% 30.04 in 10.0 mi SSW 21.9 mph - N/A   Clear
12:53 PM 82.9 °F 82.0 °F 55.0 °F 38% 30.02 in 10.0 mi South 15.0 mph 23.0 mph N/A   Clear
1:53 PM 84.9 °F 83.3 °F 54.0 °F 34% 30.00 in 10.0 mi SW 18.4 mph 26.5 mph N/A   Clear
2:53 PM 86.0 °F 84.7 °F 55.9 °F 36% 29.99 in 10.0 mi SSW 17.3 mph 23.0 mph N/A   Clear
3:53 PM 84.9 °F 83.6 °F 55.0 °F 36% 29.98 in 10.0 mi SSW 19.6 mph 26.5 mph N/A   Clear
4:53 PM 84.9 °F 83.6 °F 55.0 °F 36% 29.97 in 10.0 mi SSW 16.1 mph - N/A   Clear
5:53 PM 82.0 °F 81.7 °F 57.0 °F 42% 29.97 in 10.0 mi South 6.9 mph - N/A   Clear
6:53 PM 75.9 °F - 60.1 °F 58% 29.97 in 10.0 mi SSE 5.8 mph - N/A   Clear
7:53 PM 70.0 °F - 59.0 °F 68% 29.99 in 10.0 mi South 8.1 mph - N/A   Clear
8:53 PM 70.0 °F - 54.0 °F 57% 30.00 in 10.0 mi South 10.4 mph - N/A   Clear
9:53 PM 64.9 °F - 54.0 °F 68% 30.01 in 10.0 mi South 6.9 mph - N/A   Clear
10:53 PM 62.1 °F - 54.0 °F 75% 30.02 in 10.0 mi South 6.9 mph - N/A   Clear
11:53 PM 64.9 °F - 54.0 °F 68% 30.03 in 10.0 mi SSW 10.4 mph - N/A   Clear